TimeEST,TemperatureF,Dew PointF,Humidity,Sea Level PressureIn,VisibilityMPH,Wind Direction,Wind SpeedMPH,Gust SpeedMPH,PrecipitationIn,Events,Conditions,WindDirDegrees,DateUTC
12:56 AM,41.0,28.0,60,30.47,10.0,SE,4.6,-,N/A,,Clear,130,2013-01-28 05:56:00
1:56 AM,39.9,28.0,63,30.46,10.0,East,3.5,-,N/A,,Clear,80,2013-01-28 06:56:00
2:56 AM,37.0,30.0,76,30.47,10.0,Calm,Calm,-,N/A,,Mostly Cloudy,0,2013-01-28 07:56:00
3:39 AM,37.4,30.2,75,30.45,10.0,Calm,Calm,-,N/A,,Mostly Cloudy,0,2013-01-28 08:39:00
3:56 AM,37.9,30.0,73,30.46,10.0,NNE,4.6,-,N/A,,Overcast,20,2013-01-28 08:56:00
5:56 AM,39.0,30.0,70,30.45,10.0,Calm,Calm,-,N/A,,Overcast,0,2013-01-28 10:56:00
6:56 AM,39.0,30.0,70,30.46,9.0,North,5.8,-,N/A,,Overcast,10,2013-01-28 11:56:00
7:56 AM,37.9,32.0,79,30.47,7.0,Calm,Calm,-,0.00,Rain,Light Rain,0,2013-01-28 12:56:00
8:56 AM,37.9,34.0,86,30.47,5.0,Calm,Calm,-,0.01,,Overcast,0,2013-01-28 13:56:00
9:44 AM,39.2,35.6,87,30.46,4.0,Calm,Calm,-,0.00,,Overcast,0,2013-01-28 14:44:00
10:56 AM,39.9,36.0,86,30.46,4.0,Calm,Calm,-,0.00,,Overcast,0,2013-01-28 15:56:00
11:56 AM,42.1,37.0,82,30.45,5.0,Calm,Calm,-,N/A,,Haze,0,2013-01-28 16:56:00
12:56 PM,44.1,39.0,82,30.41,6.0,Calm,Calm,-,N/A,,Haze,0,2013-01-28 17:56:00
1:56 PM,46.0,41.0,83,30.38,6.0,Calm,Calm,-,N/A,,Haze,0,2013-01-28 18:56:00
2:56 PM,48.0,42.1,80,30.35,6.0,Calm,Calm,-,N/A,,Haze,0,2013-01-28 19:56:00
3:31 PM,50.0,42.8,76,30.33,6.0,South,3.5,-,N/A,,Haze,180,2013-01-28 20:31:00
3:56 PM,51.1,44.1,77,30.33,6.0,SSW,5.8,-,N/A,,Haze,200,2013-01-28 20:56:00
4:56 PM,52.0,45.0,77,30.32,8.0,WSW,5.8,-,N/A,,Mostly Cloudy,250,2013-01-28 21:56:00
6:40 PM,46.4,44.6,93,30.32,8.0,Calm,Calm,-,N/A,,Mostly Cloudy,0,2013-01-28 23:40:00
6:56 PM,48.0,44.1,86,30.33,8.0,Calm,Calm,-,N/A,,Scattered Clouds,0,2013-01-28 23:56:00
7:56 PM,44.1,43.0,96,30.33,6.0,Calm,Calm,-,N/A,,Clear,0,2013-01-29 00:56:00
8:56 PM,39.9,39.9,100,30.33,2.5,South,3.5,-,N/A,,Clear,190,2013-01-29 01:56:00
9:11 PM,39.2,37.4,93,30.32,3.0,South,4.6,-,N/A,,Clear,190,2013-01-29 02:11:00
9:56 PM,41.0,41.0,100,30.32,3.0,SW,3.5,-,N/A,,Clear,220,2013-01-29 02:56:00
10:56 PM,44.1,43.0,96,30.31,5.0,WSW,5.8,-,N/A,,Clear,240,2013-01-29 03:56:00
11:56 PM,44.1,41.0,89,30.30,3.0,SW,3.5,-,N/A,,Clear,230,2013-01-29 04:56:00